#Datum;Uhrzeit;WR;Pac;DaySum;Status;WR;Pac;DaySum;Status;Pdc1;Udc;Temp;WR;Pac;DaySum;Status;Pdc1;Udc;Temp;WR;Pac;DaySum;Status;Pdc1;Udc;Temp;WR;Pac;DaySum;Status;Pdc1;Pdc2;Udc1;Udc2;Temp;WR;Pac;DaySum;Status;Pdc1;Pdc2;Udc1;Udc2;Temp;WR;Pac;DaySum;Status;Pdc1;Udc;Temp;WR;Pac;DaySum;Status;Pdc1;Udc;Temp;WR;Pac;DaySum;Status;Pdc1;Udc;Temp
27.02.18;23:55:00;1;206;16996;0;2;0;21257;0;0;0;0;3;0;14149;0;0;0;0;4;0;20783;0;0;0;0;5;0;50527;0;0;0;0;0;0;6;0;38554;0;0;0;0;0;0;7;0;31523;0;0;0;0;8;0;31167;0;0;0;0;9;0;17140;0;0;0;0
27.02.18;23:50:00;1;219;16978;0;2;0;21257;0;0;0;0;3;0;14149;0;0;0;0;4;0;20783;0;0;0;0;5;0;50527;0;0;0;0;0;0;6;0;38554;0;0;0;0;0;0;7;0;31523;0;0;0;0;8;0;31167;0;0;0;0;9;0;17140;0;0;0;0
27.02.18;23:45:00;1;574;16951;0;2;0;21257;0;0;0;0;3;0;14149;0;0;0;0;4;0;20783;0;0;0;0;5;0;50527;0;0;0;0;0;0;6;0;38554;0;0;0;0;0;0;7;0;31523;0;0;0;0;8;0;31167;0;0;0;0;9;0;17140;0;0;0;0
27.02.18;23:40:00;1;220;16912;0;2;0;21257;0;0;0;0;3;0;14149;0;0;0;0;4;0;20783;0;0;0;0;5;0;50527;0;0;0;0;0;0;6;0;38554;0;0;0;0;0;0;7;0;31523;0;0;0;0;8;0;31167;0;0;0;0;9;0;17140;0;0;0;0
27.02.18;23:35:00;1;219;16894;0;2;0;21257;0;0;0;0;3;0;14149;0;0;0;0;4;0;20783;0;0;0;0;5;0;50527;0;0;0;0;0;0;6;0;38554;0;0;0;0;0;0;7;0;31523;0;0;0;0;8;0;31167;0;0;0;0;9;0;17140;0;0;0;0
27.02.18;23:30:00;1;433;16868;0;2;0;21257;0;0;0;0;3;0;14149;0;0;0;0;4;0;20783;0;0;0;0;5;0;50527;0;0;0;0;0;0;6;0;38554;0;0;0;0;0;0;7;0;31523;0;0;0;0;8;0;31167;0;0;0;0;9;0;17140;0;0;0;0
27.02.18;23:25:00;1;286;16825;0;2;0;21257;0;0;0;0;3;0;14149;0;0;0;0;4;0;20783;0;0;0;0;5;0;50527;0;0;0;0;0;0;6;0;38554;0;0;0;0;0;0;7;0;31523;0;0;0;0;8;0;31167;0;0;0;0;9;0;17140;0;0;0;0
27.02.18;23:20:00;1;336;16801;0;2;0;21257;0;0;0;0;3;0;14149;0;0;0;0;4;0;20783;0;0;0;0;5;0;50527;0;0;0;0;0;0;6;0;38554;0;0;0;0;0;0;7;0;31523;0;0;0;0;8;0;31167;0;0;0;0;9;0;17140;0;0;0;0
27.02.18;23:15:00;1;697;16774;0;2;0;21257;0;0;0;0;3;0;14149;0;0;0;0;4;0;20783;0;0;0;0;5;0;50527;0;0;0;0;0;0;6;0;38554;0;0;0;0;0;0;7;0;31523;0;0;0;0;8;0;31167;0;0;0;0;9;0;17140;0;0;0;0
27.02.18;23:10:00;1;276;16720;0;2;0;21257;0;0;0;0;3;0;14149;0;0;0;0;4;0;20783;0;0;0;0;5;0;50527;0;0;0;0;0;0;6;0;38554;0;0;0;0;0;0;7;0;31523;0;0;0;0;8;0;31167;0;0;0;0;9;0;17140;0;0;0;0
27.02.18;23:05:00;1;245;16697;0;2;0;21257;0;0;0;0;3;0;14149;0;0;0;0;4;0;20783;0;0;0;0;5;0;50527;0;0;0;0;0;0;6;0;38554;0;0;0;0;0;0;7;0;31523;0;0;0;0;8;0;31167;0;0;0;0;9;0;17140;0;0;0;0
27.02.18;23:00:00;1;673;16675;0;2;0;21257;0;0;0;0;3;0;14149;0;0;0;0;4;0;20783;0;0;0;0;5;0;50527;0;0;0;0;0;0;6;0;38554;0;0;0;0;0;0;7;0;31523;0;0;0;0;8;0;31167;0;0;0;0;9;0;17140;0;0;0;0
27.02.18;22:55:00;1;325;16623;0;2;0;21257;0;0;0;0;3;0;14149;0;0;0;0;4;0;20783;0;0;0;0;5;0;50527;2;0;0;0;0;0;6;0;38554;2;0;0;0;0;0;7;0;31523;0;0;0;0;8;0;31167;0;0;0;0;9;0;17140;0;0;0;0
27.02.18;22:50:00;1;314;16596;0;2;0;21257;0;0;0;0;3;0;14149;0;0;0;0;4;0;20783;0;0;0;0;5;0;50527;2;0;0;0;0;0;6;0;38554;2;0;0;0;0;0;7;0;31523;0;0;0;0;8;0;31167;0;0;0;0;9;0;17140;0;0;0;0
27.02.18;22:45:00;1;669;16570;0;2;0;21257;0;0;0;0;3;0;14149;0;0;0;0;4;0;20783;0;0;0;0;5;0;50527;2;0;0;0;0;0;6;0;38554;2;0;0;0;0;0;7;0;31523;0;0;0;0;8;0;31167;0;0;0;0;9;0;17140;0;0;0;0
27.02.18;22:40:00;1;312;16514;0;2;0;21257;0;0;0;0;3;0;14149;0;0;0;0;4;0;20783;0;0;0;0;5;0;50527;2;0;0;0;0;0;6;0;38554;2;0;0;0;0;0;7;0;31523;0;0;0;0;8;0;31167;0;0;0;0;9;0;17140;0;0;0;0
27.02.18;22:35:00;1;352;16488;0;2;0;21257;0;0;0;0;3;0;14149;0;0;0;0;4;0;20783;0;0;0;0;5;0;50527;2;0;0;0;0;0;6;0;38554;2;0;0;0;0;0;7;0;31523;0;0;0;0;8;0;31167;0;0;0;0;9;0;17140;0;0;0;0
27.02.18;22:30:00;1;571;16458;0;2;0;21257;0;0;0;0;3;0;14149;0;0;0;0;4;0;20783;0;0;0;0;5;0;50527;2;0;0;0;0;0;6;0;38554;2;0;0;0;0;0;7;0;31523;0;0;0;0;8;0;31167;0;0;0;0;9;0;17140;0;0;0;0
27.02.18;22:25:00;1;356;16398;0;2;0;21257;0;0;0;0;3;0;14149;0;0;0;0;4;0;20783;0;0;0;0;5;0;50527;2;0;0;0;0;0;6;0;38554;2;0;0;0;0;0;7;0;31523;0;0;0;0;8;0;31167;0;0;0;0;9;0;17140;0;0;0;0
27.02.18;22:20:00;1;324;16368;0;2;0;21257;0;0;0;0;3;0;14149;0;0;0;0;4;0;20783;0;0;0;0;5;0;50527;2;0;0;0;0;0;6;0;38554;2;0;0;0;0;0;7;0;31523;0;0;0;0;8;0;31167;0;0;0;0;9;0;17140;0;0;0;0
27.02.18;22:15:00;1;563;16340;0;2;0;21257;0;0;0;0;3;0;14149;0;0;0;0;4;0;20783;0;0;0;0;5;0;50527;2;0;0;0;0;0;6;0;38554;2;0;0;0;0;0;7;0;31523;0;0;0;0;8;0;31167;0;0;0;0;9;0;17140;0;0;0;0
27.02.18;22:10:00;1;368;16283;0;2;0;21257;0;0;0;0;3;0;14149;0;0;0;0;4;0;20783;0;0;0;0;5;0;50527;2;0;0;0;0;0;6;0;38554;2;0;0;0;0;0;7;0;31523;0;0;0;0;8;0;31167;0;0;0;0;9;0;17140;0;0;0;0
27.02.18;22:05:00;1;392;16252;0;2;0;21257;0;0;0;0;3;0;14149;0;0;0;0;4;0;20783;0;0;0;0;5;0;50527;2;0;0;0;0;0;6;0;38554;2;0;0;0;0;0;7;0;31523;0;0;0;0;8;0;31167;0;0;0;0;9;0;17140;0;0;0;0
27.02.18;22:00:00;1;388;16219;0;2;0;21257;0;0;0;0;3;0;14149;0;0;0;0;4;0;20783;0;0;0;0;5;0;50527;2;0;0;0;0;0;6;0;38554;2;0;0;0;0;0;7;0;31523;0;0;0;0;8;0;31167;0;0;0;0;9;0;17140;0;0;0;0
27.02.18;21:55:00;1;742;16173;0;2;0;21257;0;0;0;0;3;0;14149;0;0;0;0;4;0;20783;0;0;0;0;5;0;50527;2;0;0;0;0;0;6;0;38554;2;0;0;0;0;0;7;0;31523;0;0;0;0;8;0;31167;0;0;0;0;9;0;17140;0;0;0;0
27.02.18;21:50:00;1;357;16125;0;2;0;21257;0;0;0;0;3;0;14149;0;0;0;0;4;0;20783;0;0;0;0;5;0;50527;2;0;0;0;0;0;6;0;38554;2;0;0;0;0;0;7;0;31523;0;0;0;0;8;0;31167;0;0;0;0;9;0;17140;0;0;0;0
27.02.18;21:45:00;1;321;16096;0;2;0;21257;0;0;0;0;3;0;14149;0;0;0;0;4;0;20783;0;0;0;0;5;0;50527;2;0;0;0;0;0;6;0;38554;2;0;0;0;0;0;7;0;31523;0;0;0;0;8;0;31167;0;0;0;0;9;0;17140;0;0;0;0
27.02.18;21:40:00;1;759;16069;0;2;0;21257;0;0;0;0;3;0;14149;0;0;0;0;4;0;20783;0;0;0;0;5;0;50527;2;0;0;0;0;0;6;0;38554;2;0;0;0;0;0;7;0;31523;0;0;0;0;8;0;31167;0;0;0;0;9;0;17140;0;0;0;0
27.02.18;21:35:00;1;370;16008;0;2;0;21257;0;0;0;0;3;0;14149;0;0;0;0;4;0;20783;0;0;0;0;5;0;50527;2;0;0;0;0;0;6;0;38554;2;0;0;0;0;0;7;0;31523;0;0;0;0;8;0;31167;0;0;0;0;9;0;17140;0;0;0;0
27.02.18;21:30:00;1;363;15977;0;2;0;21257;0;0;0;0;3;0;14149;0;0;0;0;4;0;20783;0;0;0;0;5;0;50527;2;0;0;0;0;0;6;0;38554;2;0;0;0;0;0;7;0;31523;0;0;0;0;8;0;31167;0;0;0;0;9;0;17140;0;0;0;0
27.02.18;21:25:00;1;502;15947;0;2;0;21257;0;0;0;0;3;0;14149;0;0;0;0;4;0;20783;0;0;0;0;5;0;50527;2;0;0;0;0;0;6;0;38554;2;0;0;0;0;0;7;0;31523;0;0;0;0;8;0;31167;0;0;0;0;9;0;17140;0;0;0;0
27.02.18;21:20:00;1;324;15890;0;2;0;21257;0;0;0;0;3;0;14149;0;0;0;0;4;0;20783;0;0;0;0;5;0;50527;2;0;0;0;0;0;6;0;38554;2;0;0;0;0;0;7;0;31523;0;0;0;0;8;0;31167;0;0;0;0;9;0;17140;0;0;0;0
27.02.18;21:15:00;1;324;15863;0;2;0;21257;0;0;0;0;3;0;14149;0;0;0;0;4;0;20783;0;0;0;0;5;0;50527;2;0;0;0;0;0;6;0;38554;2;0;0;0;0;0;7;0;31523;0;0;0;0;8;0;31167;0;0;0;0;9;0;17140;0;0;0;0
27.02.18;21:10:00;1;320;15836;0;2;0;21257;0;0;0;0;3;0;14149;0;0;0;0;4;0;20783;0;0;0;0;5;0;50527;2;0;0;0;0;0;6;0;38554;2;0;0;0;0;0;7;0;31523;0;0;0;0;8;0;31167;0;0;0;0;9;0;17140;0;0;0;0
27.02.18;21:05:00;1;526;15809;0;2;0;21257;0;0;0;0;3;0;14149;0;0;0;0;4;0;20783;0;0;0;0;5;0;50527;2;0;0;0;0;0;6;0;38554;2;0;0;0;0;0;7;0;31523;0;0;0;0;8;0;31167;0;0;0;0;9;0;17140;0;0;0;0
27.02.18;21:00:00;1;427;15751;0;2;0;21257;0;0;0;0;3;0;14149;0;0;0;0;4;0;20783;0;0;0;0;5;0;50527;2;0;0;0;0;0;6;0;38554;2;0;0;0;0;0;7;0;31523;0;0;0;0;8;0;31167;0;0;0;0;9;0;17140;0;0;0;0
27.02.18;20:55:00;1;481;15716;0;2;0;21257;0;0;0;0;3;0;14149;0;0;0;0;4;0;20783;0;0;0;0;5;0;50527;2;0;0;0;0;0;6;0;38554;2;0;0;0;0;0;7;0;31523;0;0;0;0;8;0;31167;0;0;0;0;9;0;17140;0;0;0;0
27.02.18;20:50:00;1;716;15677;0;2;0;21257;0;0;0;0;3;0;14149;0;0;0;0;4;0;20783;0;0;0;0;5;0;50527;2;0;0;0;0;0;6;0;38554;2;0;0;0;0;0;7;0;31523;0;0;0;0;8;0;31167;0;0;0;0;9;0;17140;0;0;0;0
27.02.18;20:45:00;1;537;15603;0;2;0;21257;0;0;0;0;3;0;14149;0;0;0;0;4;0;20783;0;0;0;0;5;0;50527;2;0;0;0;0;0;6;0;38554;2;0;0;0;0;0;7;0;31523;0;0;0;0;8;0;31167;0;0;0;0;9;0;17140;0;0;0;0
27.02.18;20:40:00;1;541;15558;0;2;0;21257;0;0;0;0;3;0;14149;0;0;0;0;4;0;20783;0;0;0;0;5;0;50527;2;0;0;0;0;0;6;0;38554;2;0;0;0;0;0;7;0;31523;0;0;0;0;8;0;31167;0;0;0;0;9;0;17140;0;0;0;0
27.02.18;20:35:00;1;500;15512;0;2;0;21257;0;0;0;0;3;0;14149;0;0;0;0;4;0;20783;0;0;0;0;5;0;50527;2;0;0;0;0;0;6;0;38554;2;0;0;0;0;0;7;0;31523;0;0;0;0;8;0;31167;0;0;0;0;9;0;17140;0;0;0;0
27.02.18;20:30:00;1;1244;15471;0;2;0;21257;0;0;0;0;3;0;14149;0;0;0;0;4;0;20783;0;0;0;0;5;0;50527;2;0;0;0;0;0;6;0;38554;2;0;0;0;0;0;7;0;31523;0;0;0;0;8;0;31167;0;0;0;0;9;0;17140;0;0;0;0
27.02.18;20:25:00;1;443;15404;0;2;0;21257;0;0;0;0;3;0;14149;0;0;0;0;4;0;20783;0;0;0;0;5;0;50527;2;0;0;0;0;0;6;0;38554;2;0;0;0;0;0;7;0;31523;0;0;0;0;8;0;31167;0;0;0;0;9;0;17140;0;0;0;0
27.02.18;20:20:00;1;447;15367;0;2;0;21257;0;0;0;0;3;0;14149;0;0;0;0;4;0;20783;0;0;0;0;5;0;50527;2;0;0;0;0;0;6;0;38554;2;0;0;0;0;0;7;0;31523;0;0;0;0;8;0;31167;0;0;0;0;9;0;17140;0;0;0;0
27.02.18;20:15:00;1;634;15330;0;2;0;21257;0;0;0;0;3;0;14149;0;0;0;0;4;0;20783;0;0;0;0;5;0;50527;2;0;0;0;0;0;6;0;38554;2;0;0;0;0;0;7;0;31523;0;0;0;0;8;0;31167;0;0;0;0;9;0;17140;0;0;0;0
27.02.18;20:10:00;1;476;15261;0;2;0;21257;0;0;0;0;3;0;14149;0;0;0;0;4;0;20783;0;0;0;0;5;0;50527;2;0;0;0;0;0;6;0;38554;2;0;0;0;0;0;7;0;31523;0;0;0;0;8;0;31167;0;0;0;0;9;0;17140;0;0;0;0
27.02.18;20:05:00;1;1828;15222;0;2;0;21257;0;0;0;0;3;0;14149;0;0;0;0;4;0;20783;0;0;0;0;5;0;50527;2;0;0;0;0;0;6;0;38554;2;0;0;0;0;0;7;0;31523;0;0;0;0;8;0;31167;0;0;0;0;9;0;17140;0;0;0;0
27.02.18;20:00:00;1;766;15064;0;2;0;21257;0;0;0;0;3;0;14149;0;0;0;0;4;0;20783;0;0;0;0;5;0;50527;2;0;0;0;0;0;6;0;38554;2;0;0;0;0;0;7;0;31523;0;0;0;0;8;0;31167;0;0;0;0;9;0;17140;0;0;0;0
27.02.18;19:55:00;1;856;14995;0;2;0;21257;0;0;0;0;3;0;14149;0;0;0;0;4;0;20783;0;0;0;0;5;0;50527;2;0;0;0;0;0;6;0;38554;2;0;0;0;0;0;7;0;31523;0;0;0;0;8;0;31167;0;0;0;0;9;0;17140;0;0;0;0
27.02.18;19:50:00;1;581;14925;0;2;0;21257;0;0;0;0;3;0;14149;0;0;0;0;4;0;20783;0;0;0;0;5;0;50527;2;0;0;0;0;0;6;0;38554;2;0;0;0;0;0;7;0;31523;0;0;0;0;8;0;31167;0;0;0;0;9;0;17140;0;0;0;0
27.02.18;19:45:00;1;671;14878;0;2;0;21257;0;0;0;0;3;0;14149;0;0;0;0;4;0;20783;0;0;0;0;5;0;50527;2;0;0;0;0;0;6;0;38554;2;0;0;0;0;0;7;0;31523;0;0;0;0;8;0;31167;0;0;0;0;9;0;17140;0;0;0;0
27.02.18;19:40:00;1;942;14822;0;2;0;21257;0;0;0;0;3;0;14149;0;0;0;0;4;0;20783;0;0;0;0;5;0;50527;2;0;0;0;0;0;6;0;38554;2;0;0;0;0;0;7;0;31523;0;0;0;0;8;0;31167;0;0;0;0;9;0;17140;0;0;0;0
27.02.18;19:35:00;1;934;14729;0;2;0;21257;0;0;0;0;3;0;14149;0;0;0;0;4;0;20783;0;0;0;0;5;0;50527;2;0;0;0;0;0;6;0;38554;2;0;0;0;0;0;7;0;31523;0;0;0;0;8;0;31167;0;0;0;0;9;0;17140;0;0;0;0
27.02.18;19:30:00;1;888;14647;0;2;0;21257;0;0;0;0;3;0;14149;0;0;0;0;4;0;20783;0;0;0;0;5;0;50527;2;0;0;0;0;0;6;0;38554;2;0;0;0;0;0;7;0;31523;0;0;0;0;8;0;31167;0;0;0;0;9;0;17140;0;0;0;0
27.02.18;19:25:00;1;1181;14569;0;2;0;21257;0;0;0;0;3;0;14149;0;0;0;0;4;0;20783;0;0;0;0;5;0;50527;2;0;0;0;0;0;6;0;38554;2;0;0;0;0;0;7;0;31523;0;0;0;0;8;0;31167;0;0;0;0;9;0;17140;0;0;0;0
27.02.18;19:20:00;1;901;14479;0;2;0;21257;0;0;0;0;3;0;14149;0;0;0;0;4;0;20783;0;0;0;0;5;0;50527;2;0;0;0;0;0;6;0;38554;2;0;0;0;0;0;7;0;31523;0;0;0;0;8;0;31167;0;0;0;0;9;0;17140;0;0;0;0
27.02.18;19:15:00;1;805;14389;0;2;0;21257;0;0;0;0;3;0;14149;0;0;0;0;4;0;20783;0;0;0;0;5;0;50527;2;0;0;0;0;0;6;0;38554;2;0;0;0;0;0;7;0;31523;0;0;0;0;8;0;31167;0;0;0;0;9;0;17140;0;0;0;0
27.02.18;19:10:00;1;1485;14316;0;2;0;21257;0;0;0;0;3;0;14149;0;0;0;0;4;0;20783;0;0;0;0;5;0;50527;2;0;0;0;0;0;6;0;38554;2;0;0;0;0;0;7;0;31523;0;0;0;0;8;0;31167;0;0;0;0;9;0;17140;0;0;0;0
27.02.18;19:05:00;1;1229;14236;0;2;0;21257;0;0;0;0;3;0;14149;0;0;0;0;4;0;20783;0;0;0;0;5;0;50527;2;0;0;0;0;0;6;0;38554;2;0;0;0;0;0;7;0;31523;0;0;0;0;8;0;31167;0;0;0;0;9;0;17140;0;0;0;0
27.02.18;19:00:00;1;1310;14150;0;2;0;21257;0;0;0;0;3;0;14149;0;0;0;0;4;0;20783;0;0;0;0;5;0;50527;2;0;0;0;0;0;6;0;38554;2;0;0;0;0;0;7;0;31523;0;0;0;0;8;0;31167;0;0;0;0;9;0;17140;0;0;0;0
27.02.18;18:55:00;1;642;14064;0;2;0;21257;0;0;0;0;3;0;14149;0;0;0;0;4;0;20783;0;0;0;0;5;0;50527;2;0;0;0;0;0;6;0;38554;2;0;0;0;0;0;7;0;31523;0;0;0;0;8;0;31167;0;0;0;0;9;0;17140;0;0;0;0
27.02.18;18:50:00;1;932;14002;0;2;0;21257;0;0;0;0;3;0;14149;0;0;0;0;4;0;20783;0;0;0;0;5;0;50527;2;0;0;0;0;0;6;0;38554;2;0;0;0;0;0;7;0;31523;0;0;0;0;8;0;31167;0;0;0;0;9;0;17140;0;0;0;0
27.02.18;18:45:00;1;1321;13919;0;2;0;21257;0;0;0;0;3;0;14149;0;0;0;0;4;0;20783;0;0;0;0;5;0;50527;2;0;0;0;0;0;6;0;38554;2;0;0;0;0;0;7;0;31523;0;0;0;0;8;0;31167;0;0;0;0;9;0;17140;0;0;0;0
27.02.18;18:40:00;1;879;13813;0;2;0;21257;0;0;0;0;3;0;14149;0;0;0;0;4;0;20783;0;0;0;0;5;0;50527;2;0;0;0;0;0;6;0;38554;2;0;0;0;0;0;7;0;31523;0;0;0;0;8;0;31167;0;0;0;0;9;0;17140;0;0;0;0
27.02.18;18:35:00;1;1075;13737;0;2;0;21257;0;0;0;0;3;0;14149;0;0;0;0;4;0;20783;0;0;0;0;5;0;50527;2;0;0;0;0;0;6;0;38554;2;0;0;0;0;0;7;0;31523;0;0;0;0;8;0;31167;0;0;0;0;9;0;17140;0;0;0;0
27.02.18;18:30:00;1;786;13634;0;2;0;21257;0;0;0;0;3;0;14149;0;0;0;0;4;0;20783;0;0;0;0;5;0;50527;2;0;0;0;0;0;6;0;38554;2;0;0;0;0;0;7;0;31523;0;0;0;0;8;0;31167;0;0;0;0;9;0;17140;0;0;0;0
27.02.18;18:25:00;1;908;13569;0;2;0;21257;0;0;0;0;3;0;14149;0;0;0;0;4;0;20783;0;0;0;0;5;0;50527;2;0;0;0;0;0;6;0;38554;2;0;0;0;0;0;7;0;31523;0;0;0;0;8;0;31167;0;0;0;0;9;0;17140;0;0;0;0
27.02.18;18:20:00;1;1522;13491;0;2;0;21257;0;0;0;0;3;0;14149;0;0;0;0;4;0;20783;0;0;0;0;5;0;50527;2;0;0;0;0;0;6;0;38554;2;0;0;0;0;0;7;0;31523;0;0;0;0;8;0;31167;0;0;0;0;9;0;17140;0;0;0;0
27.02.18;18:15:00;1;946;13354;0;2;0;21257;0;0;0;0;3;0;14149;0;0;0;0;4;0;20783;0;0;0;0;5;0;50527;2;0;0;0;0;0;6;0;38554;2;0;0;0;0;0;7;0;31523;0;0;0;0;8;0;31167;0;0;0;0;9;0;17140;0;0;0;0
27.02.18;18:10:00;1;1366;13275;0;2;0;21257;0;0;0;0;3;0;14149;0;0;0;0;4;0;20783;0;0;0;0;5;0;50527;2;0;0;0;0;0;6;0;38554;2;0;0;0;0;0;7;0;31523;0;0;0;0;8;0;31167;0;0;0;0;9;0;17140;0;0;0;0
27.02.18;18:05:00;1;1046;13162;0;2;0;21257;0;0;188;5;3;0;14149;2;0;281;11;4;0;20783;0;0;0;0;5;0;50527;2;0;0;0;0;0;6;0;38554;2;0;0;0;0;0;7;0;31523;0;0;0;0;8;0;31167;0;0;0;0;9;0;17140;0;0;0;0
27.02.18;18:00:00;1;1075;13074;0;2;0;21257;6;0;302;8;3;0;14149;6;0;338;12;4;0;20783;0;0;0;0;5;0;50527;2;0;0;0;0;0;6;0;38554;1;0;0;0;0;0;7;0;31523;0;0;0;0;8;0;31167;0;0;0;0;9;0;17140;0;0;0;0
27.02.18;17:55:00;1;1336;12967;0;2;0;21257;6;0;344;8;3;0;14149;6;1;396;12;4;0;20783;0;0;59;2;5;0;50527;2;0;0;262;287;17;6;0;38554;2;5;4;169;282;13;7;0;31523;0;0;0;0;8;0;31167;0;0;0;0;9;0;17140;0;0;0;0
27.02.18;17:50:00;1;1004;12859;0;2;0;21257;6;0;370;8;3;0;14149;6;1;436;12;4;0;20783;1;0;96;3;5;0;50527;26;0;0;405;411;21;6;0;38554;23;2;2;308;459;16;7;0;31523;0;0;0;0;8;0;31167;0;0;0;0;9;0;17140;0;0;41;1
27.02.18;17:45:00;1;1231;12776;0;2;0;21257;6;0;391;9;3;0;14149;6;3;450;12;4;0;20783;1;0;131;3;5;0;50527;23;0;0;431;561;21;6;0;38554;23;1;10;453;311;16;7;0;31523;0;0;213;7;8;0;31167;0;0;222;6;9;0;17140;6;0;288;6
27.02.18;17:40:00;1;1020;12662;0;2;0;21257;6;0;404;9;3;0;14149;6;0;513;12;4;0;20783;1;0;163;4;5;5;50527;1;0;0;432;672;21;6;0;38554;23;6;5;244;591;17;7;0;31523;6;0;313;9;8;0;31167;6;0;319;8;9;0;17140;6;0;341;6
27.02.18;17:35:00;1;946;12582;0;2;0;21257;6;0;413;9;3;1;14149;4;6;476;13;4;0;20783;1;0;187;4;5;8;50526;1;0;1;437;690;21;6;0;38554;1;3;9;506;601;17;7;0;31523;6;0;356;9;8;0;31167;6;0;363;9;9;0;17140;6;0;391;6
27.02.18;17:30:00;1;974;12503;0;2;0;21257;6;0;418;10;3;2;14149;3;7;480;13;4;0;20783;1;0;187;5;5;8;50525;1;0;2;444;702;22;6;0;38554;8;4;5;489;604;18;7;0;31523;6;0;386;10;8;0;31167;6;0;393;9;9;0;17140;6;0;425;7
27.02.18;17:25:00;1;1395;12418;0;2;1;21257;4;11;402;10;3;1;14149;6;4;516;13;4;0;20783;1;0;220;5;5;59;50524;1;6;12;410;651;23;6;0;38554;23;2;7;444;609;18;7;0;31523;6;0;407;10;8;0;31167;6;0;423;10;9;0;17140;4;0;446;7
27.02.18;17:20:00;1;926;12315;0;2;6;21257;3;20;406;11;3;2;14149;6;6;530;13;4;0;20783;3;0;218;6;5;97;50519;4;23;25;401;637;23;6;38;38554;1;16;20;502;377;20;7;0;31523;6;0;479;11;8;0;31167;6;2;459;10;9;1;17140;3;6;479;7
27.02.18;17:15:00;1;927;12238;0;2;14;21256;6;24;418;11;3;2;14149;6;7;548;14;4;0;20783;3;0;209;6;5;132;50511;4;41;35;402;637;23;6;67;38550;4;26;26;468;318;20;7;2;31523;4;11;463;11;8;2;31167;6;4;488;10;9;0;17140;6;4;540;7
27.02.18;17:10:00;1;1386;12150;0;2;55;21255;4;90;368;12;3;5;14149;6;12;554;14;4;9;20783;3;9;199;7;5;169;50500;4;63;37;401;637;23;6;94;38544;4;42;42;467;317;20;7;5;31523;3;12;492;11;8;10;31167;3;20;467;11;9;2;17140;6;6;550;8
27.02.18;17:05:00;1;1129;12038;0;2;86;21251;4;120;374;12;3;14;14148;4;26;545;14;4;32;20782;3;34;198;7;5;221;50485;4;97;80;401;637;24;6;119;38536;4;51;47;468;318;20;7;47;31522;4;91;425;12;8;55;31166;4;90;411;11;9;4;17140;6;8;572;8
27.02.18;17:00:00;1;1037;11944;0;2;121;21243;4;156;392;12;3;65;14147;4;105;500;15;4;59;20779;3;61;197;7;5;279;50466;4;124;107;402;637;24;6;153;38526;4;121;96;468;318;20;7;94;31518;4;127;429;12;8;88;31161;4;129;437;12;9;8;17140;6;14;577;9
27.02.18;16:55:00;1;1146;11845;0;2;162;21233;4;202;393;13;3;91;14142;4;134;521;15;4;95;20775;3;99;219;8;5;346;50443;4;165;143;401;637;24;6;205;38513;4;102;105;468;381;20;7;155;31511;4;186;451;12;8;150;31154;4;181;445;12;9;64;17139;6;91;503;9
27.02.18;16:50:00;1;861;11751;0;2;229;21220;4;271;407;13;3;139;14134;4;184;516;16;4;166;20767;5;173;239;8;5;458;50414;4;220;190;412;641;24;6;329;38496;4;140;170;544;562;20;7;248;31498;4;281;486;13;8;234;31142;4;277;480;12;9;116;17134;4;152;533;9
27.02.18;16:45:00;1;981;11679;0;2;350;21201;4;396;416;14;3;215;14123;4;263;538;16;4;266;20753;5;277;242;9;5;648;50375;4;312;269;424;686;24;6;485;38467;4;236;264;601;580;20;7;385;31477;4;434;493;13;8;377;31123;4;422;507;12;9;190;17125;4;227;553;10
27.02.18;16:40:00;1;1086;11589;0;2;461;21173;4;512;418;15;3;283;14105;4;332;525;17;4;367;20731;5;382;245;9;5;837;50320;4;415;354;441;695;24;6;625;38426;4;299;334;612;586;21;7;519;31446;4;575;484;13;8;522;31092;4;571;491;13;9;264;17109;4;307;552;10
27.02.18;16:35:00;1;888;11506;0;2;615;21134;4;672;425;15;3;383;14082;4;437;535;17;4;503;20701;5;524;251;9;5;1123;50248;4;560;472;442;708;24;6;831;38373;4;435;453;620;591;21;7;729;31403;4;772;498;13;8;710;31049;4;759;496;13;9;365;17087;4;412;549;11
27.02.18;16:30:00;1;837;11429;0;2;756;21084;4;821;428;16;3;477;14050;4;534;544;17;4;636;20659;5;663;256;10;5;1357;50155;4;686;582;445;737;24;6;1026;38303;4;517;530;620;598;21;7;900;31343;4;955;503;14;8;881;30990;4;943;499;13;9;454;17057;4;509;560;11
27.02.18;16:25:00;1;1105;11337;0;2;898;21021;4;966;430;16;3;568;14010;4;627;556;18;4;765;20607;5;797;255;10;5;1571;50040;4;802;680;440;729;25;6;1191;38216;4;584;605;627;600;21;7;1048;31269;4;1119;505;14;8;1051;30917;4;1109;505;14;9;527;17020;4;585;577;11
27.02.18;16:20:00;1;863;11258;0;2;988;20946;4;1060;438;17;3;624;13963;4;689;560;18;4;834;20543;5;869;257;11;5;1729;49908;4;887;746;445;727;25;6;1306;38117;4;673;686;625;604;21;7;1138;31182;4;1204;502;14;8;1133;30830;4;1196;505;14;9;575;16976;4;632;574;12
27.02.18;16:15:00;1;1501;11187;0;2;1065;20864;4;1137;433;17;3;663;13911;4;734;571;18;4;910;20474;5;948;257;11;5;1896;49762;4;987;822;451;735;25;6;1445;38007;4;743;742;636;609;21;7;1241;31087;4;1314;499;15;8;1233;30735;4;1306;501;14;9;631;16928;4;691;571;12
27.02.18;16:10:00;1;1179;11082;0;2;1072;20776;4;1149;437;18;3;679;13856;4;747;562;19;4;911;20398;5;948;255;11;5;1953;49604;4;1025;842;447;737;25;6;1488;37886;4;756;765;633;608;21;7;1251;30984;4;1316;502;15;8;1233;30633;4;1308;503;14;9;649;16875;4;714;570;12
27.02.18;16:05:00;1;2385;11002;0;2;1066;20686;4;1140;432;18;3;680;13799;4;746;553;19;4;901;20322;5;938;256;12;5;1955;49441;4;1019;848;445;736;25;6;1489;37762;4;767;776;631;610;21;7;1246;30879;4;1303;508;15;8;1217;30530;4;1282;499;15;9;652;16821;4;717;571;12
27.02.18;16:00:00;1;2896;10770;0;2;1104;20597;4;1175;430;19;3;699;13743;4;769;560;19;4;933;20247;5;972;254;12;5;2017;49278;4;1046;875;448;729;25;6;1532;37638;4;791;795;628;611;21;7;1260;30775;4;1339;503;15;8;1256;30429;4;1330;503;15;9;674;16767;4;736;568;13
27.02.18;15:55:00;1;1873;10552;0;2;1152;20505;4;1230;434;19;3;733;13684;4;803;559;19;4;978;20169;5;1019;256;12;5;2095;49109;4;1088;912;448;735;25;6;1597;37510;4;819;823;634;611;21;7;1319;30670;4;1401;501;16;8;1319;30325;4;1393;508;15;9;706;16711;4;772;561;13
27.02.18;15:50:00;1;2900;10381;0;2;1195;20409;4;1277;439;20;3;765;13623;4;834;554;20;4;1018;20088;5;1060;256;13;5;2176;48934;4;1134;951;447;737;25;6;1665;37376;4;852;858;637;615;21;7;1393;30560;4;1468;509;16;8;1374;30214;4;1459;508;16;9;744;16652;4;808;562;13
27.02.18;15:45:00;1;3141;10139;0;2;1233;20310;4;1315;432;20;3;790;13559;4;863;556;20;4;1050;20003;5;1094;257;13;5;2262;48752;4;1165;983;456;735;25;6;1721;37237;4;877;879;635;613;21;7;1444;30444;4;1518;511;17;8;1432;30100;4;1509;507;16;9;769;16590;4;837;563;14
27.02.18;15:40:00;1;2309;9870;0;2;1334;20207;4;1419;433;21;3;839;13494;4;916;568;21;4;1124;19915;5;1171;259;14;5;2380;48564;4;1251;1044;456;732;25;6;1822;37093;4;919;919;631;618;22;7;1566;30324;4;1649;512;17;8;1549;29980;4;1631;507;17;9;834;16526;4;904;565;14
27.02.18;15:35:00;1;1018;9693;0;2;1386;20096;4;1476;442;22;3;881;13424;4;956;570;21;4;1180;19821;5;1229;259;14;5;2507;48363;4;1299;1098;453;731;25;6;1915;36940;4;956;958;636;619;22;7;1640;30193;4;1723;511;17;8;1623;29851;4;1707;509;17;9;872;16456;4;946;563;14
27.02.18;15:30:00;1;1129;9612;0;2;1435;19980;4;1526;438;22;3;913;13350;4;988;562;21;4;1219;19723;5;1270;258;15;5;2590;48154;4;1357;1132;451;732;25;6;1978;36780;4;1012;1010;637;614;22;7;1710;30057;4;1803;512;18;8;1689;29716;4;1777;511;17;9;913;16383;4;984;563;15
27.02.18;15:25:00;1;900;9506;0;2;1651;19860;4;1752;435;23;3;1018;13274;4;1103;573;22;4;1389;19622;5;1447;260;15;5;2899;47937;4;1539;1267;450;728;26;6;2204;36614;4;1134;1130;634;613;22;7;1965;29914;4;2064;511;18;8;1933;29575;4;2031;508;18;9;1043;16307;4;1126;562;15
27.02.18;15:20:00;1;4642;9414;0;2;1893;19724;4;2004;434;24;3;1150;13190;4;1238;585;22;4;1614;19506;5;1681;262;16;5;3272;47694;4;1751;1438;457;731;26;6;2499;36429;4;1271;1260;642;615;22;7;2243;29751;4;2364;509;18;8;2213;29415;4;2324;507;18;9;1201;16221;4;1287;568;16
27.02.18;15:15:00;1;5000;8954;0;2;1958;19566;4;2072;440;25;3;1204;13094;4;1294;584;23;4;1681;19373;5;1751;261;17;5;3431;47421;4;1830;1517;453;737;26;6;2621;36220;4;1337;1316;633;616;22;7;2323;29565;4;2445;509;19;8;2299;29231;4;2413;508;18;9;1252;16121;4;1340;566;16
27.02.18;15:10:00;1;4939;8411;0;2;1989;19403;4;2108;440;25;3;1239;12994;4;1332;580;23;4;1717;19233;5;1789;260;17;5;3552;47133;4;1885;1574;455;732;26;6;2723;36001;4;1395;1369;640;621;22;7;2410;29372;4;2538;508;19;8;2389;29040;4;2514;504;19;9;1303;16017;4;1394;567;16
27.02.18;15:05:00;1;4857;7983;0;2;2003;19238;4;2123;434;26;3;1236;12891;4;1328;585;23;4;1721;19090;5;1792;257;18;5;3568;46837;4;1906;1582;451;732;26;6;2740;35774;4;1401;1389;644;621;22;7;2399;29171;4;2527;509;20;8;2374;28841;4;2498;505;19;9;1291;15909;4;1383;567;17
27.02.18;15:00:00;1;4741;7582;0;2;1989;19071;4;2113;442;27;3;1227;12788;4;1325;589;24;4;1727;18947;5;1799;257;18;5;3585;46538;4;1919;1585;455;737;27;6;2766;35545;4;1420;1405;643;620;22;7;2367;28971;4;2493;509;20;8;2348;28643;4;2467;504;20;9;1283;15801;4;1371;559;17
27.02.18;14:55:00;1;635;7176;0;2;1926;18904;4;2042;436;27;3;1201;12685;4;1296;581;24;4;1663;18802;5;1732;255;19;5;3470;46240;4;1850;1535;452;726;27;6;2672;35315;4;1377;1354;641;617;23;7;2296;28772;4;2421;506;21;8;2283;28446;4;2392;500;20;9;1240;15693;4;1328;564;18
27.02.18;14:50:00;1;633;7123;0;2;1978;18744;4;2095;434;28;3;1224;12585;4;1315;581;24;4;1717;18663;5;1789;257;19;5;3541;45951;4;1900;1556;452;730;27;6;2720;35092;4;1409;1393;637;621;23;7;2402;28581;4;2533;507;21;8;2373;28255;4;2495;505;21;9;1292;15590;4;1382;561;18
27.02.18;14:45:00;1;2375;7068;0;2;2185;18579;4;2317;434;30;3;1340;12483;4;1433;548;25;4;1889;18520;5;1968;255;20;5;3842;45656;4;2052;1696;449;724;28;6;2941;34865;4;1500;1482;637;616;23;7;2698;28381;4;2831;499;22;8;2650;28058;4;2784;500;22;9;1443;15482;4;1541;558;19
27.02.18;14:40:00;1;599;6881;0;2;2811;18398;4;2966;432;31;3;1781;12372;4;1889;546;26;4;2429;18364;5;2530;257;21;5;4824;45333;4;2610;2135;449;734;28;6;3711;34617;4;1911;1873;638;619;23;7;3530;28158;4;3707;494;23;8;3481;27839;4;3643;501;22;9;1909;15363;4;2028;552;20
27.02.18;14:35:00;1;667;6829;0;2;2479;18167;4;2615;431;31;3;1594;12226;4;1703;551;26;4;2213;18165;5;2305;256;22;5;4385;44931;4;2374;1947;448;723;29;6;3357;34308;4;1724;1694;635;606;24;7;3248;27869;4;3402;495;23;8;3203;27554;4;3360;500;23;9;1763;15207;4;1876;551;20